Lapse_Rate
6.5 4.9 5.0 4.2 4.6 5.3 4.9 5.8 7.4 6.3 3.9 4.7 6.0 5.7 5.4 4.9 4.6 3.8 4.9 7.0 9.4 9.6
6.2 5.2 5.7 3.9 5.0 4.6 5.5 6.8 5.6 4.1 3.9 4.8 5.0 5.9 5.5 4.8 4.5 6.3 6.5 7.4 9.4 9.5
6.4 5.7 5.5 4.9 4.9 6.0 6.6 5.9 3.9 4.1 4.3 5.3 6.4 5.8 5.0 6.1 6.1 6.2 7.7 7.9 7.5 9.1
7.5 7.0 5.7 5.0 6.3 6.3 5.6 4.8 5.2 5.2 5.5 5.6 5.7 4.7 6.1 5.5 6.6 8.2 7.5 6.9 7.3 8.8
8.5 8.7 5.7 5.6 5.6 5.3 5.7 6.2 6.2 4.6 4.3 5.6 5.3 5.4 5.4 6.6 8.4 8.0 7.0 6.2 7.0 8.7
6.2 5.5 4.6 4.3 4.1 4.0 4.4 4.5 4.1 4.2 5.8 5.0 5.7 6.1 5.9 6.8 6.5 5.7 6.3 6.7 7.8 8.9
6.4 5.7 5.2 4.6 3.9 3.2 3.3 3.7 4.9 4.7 3.9 6.0 5.5 5.8 5.9 5.6 5.4 6.5 7.5 6.3 7.8 8.8
7.8 8.1 7.6 7.4 6.7 5.7 4.9 4.7 3.7 4.0 5.4 5.2 4.3 5.0 4.4 6.1 8.9 7.7 6.7 6.3 7.7 9.3
8.8 8.4 8.0 7.6 6.0 6.2 5.8 5.7 4.9 2.9 3.6 3.8 5.6 4.3 3.5 4.7 7.8 6.6 6.2 6.4 8.7 9.7
7.6 6.2 5.8 5.8 5.8 5.6 5.4 6.0 5.3 5.5 6.6 6.7 8.7 4.2 3.3 3.4 5.6 5.6 6.3 8.5 9.6 9.7
6.9 6.0 6.4 6.7 6.7 6.6 6.5 6.8 7.0 8.1 8.7 8.2 7.0 4.1 3.6 3.3 6.0 7.9 9.5 9.6 9.7 9.7
8.6 9.0 9.1 9.0 7.7 7.9 8.5 8.6 7.6 6.2 6.9 6.7 7.9 4.7 4.0 4.6 8.4 9.4 9.4 9.7 9.8 9.7
9.4 9.4 9.0 8.4 7.8 7.2 7.2 7.6 8.3 9.3 9.5 9.2 9.5 7.1 5.1 6.0 8.8 8.9 9.2 9.6 9.7 8.3
8.2 7.6 8.2 9.3 9.5 9.5 9.5 9.4 9.3 8.5 9.4 9.6 9.4 9.3 5.8 5.8 7.5 7.8 7.4 8.3 8.8 9.2
Wind_Speed
16 9 6 9 7 7 7 7 10 11 10 9 9 8 8 4 4 3 5 6 5 6
16 12 9 10 11 7 7 6 9 10 7 8 9 9 9 5 6 5 4 4 2 6
15 12 11 10 11 10 8 8 11 12 11 10 12 10 9 6 7 5 0 4 3 9
12 11 8 7 8 7 7 10 12 12 11 7 8 8 6 6 6 7 5 1 6 11
10 9 6 6 6 6 9 10 11 10 9 10 9 6 7 8 8 7 3 5 10 13
7 5 5 5 5 4 4 5 7 8 9 9 9 9 5 5 5 2 5 7 11 13
10 7 7 7 6 6 6 6 7 5 6 8 6 7 9 6 6 7 8 7 13 12
7 8 8 9 9 9 8 7 8 6 8 6 7 6 7 10 11 6 8 8 14 13
9 9 9 8 9 7 8 8 7 9 8 8 6 8 3 4 4 4 8 11 14 15
11 10 10 9 9 9 8 8 7 8 8 8 8 9 6 4 6 7 9 15 13 14
11 11 10 10 10 9 8 7 7 6 2 0 1 5 5 6 8 11 13 14 15 15
11 11 10 10 9 7 6 5 5 4 2 3 6 9 7 6 9 11 14 14 16 16
10 9 9 8 7 4 4 4 4 4 4 0 6 5 7 4 7 11 10 14 16 14
8 8 7 7 5 3 3 2 1 1 3 5 5 5 12 11 7 7 9 10 11 11
Wind_Direction
223 212 209 172 191 210 199 198 221 213 183 183 183 146 142 158 179 180 212 257 262 291
231 223 206 190 198 194 199 201 201 191 181 169 158 170 171 178 182 185 209 246 312 295
216 218 209 211 211 197 191 185 189 186 183 180 182 178 186 179 175 186 268 57 288 270
207 207 202 215 214 193 160 193 197 200 191 177 169 180 185 180 195 155 112 315 291 266
199 221 189 194 172 164 190 200 201 181 169 192 165 161 179 198 161 143 21 315 269 264
156 152 133 133 123 122 161 161 170 179 200 153 166 178 143 147 116 136 243 278 284 274
141 156 159 151 155 158 164 175 182 141 120 149 129 157 141 125 188 216 257 277 273 273
138 138 140 155 151 154 156 138 122 125 137 127 130 150 166 200 223 235 263 278 278 272
115 111 106 104 100 111 122 114 125 131 139 147 172 169 140 318 254 252 267 277 270 275
111 110 111 110 112 116 117 132 137 149 167 184 210 156 176 201 258 267 263 267 284 283
117 113 116 114 116 118 128 136 157 168 194 258 131 164 208 225 261 266 274 277 281 283
116 115 117 115 119 124 126 119 90 93 152 238 266 224 230 236 281 286 290 290 287 287
121 117 111 109 106 114 144 174 184 197 206 272 289 164 177 244 307 302 300 296 294 287
106 114 132 138 137 133 118 86 82 295 307 313 333 349 61 34 349 332 325 310 301 297